Weather History for McTavish ARS, QC

Change the Weather History Date:

Saturday, October 6, 2012

  Actual Average Record
Temperature  
Mean Temperature 54 °F -  
Max Temperature 61 °F - - ()
Min Temperature 47 °F - - ()
Degree Days  
Heating Degree Days 11    
Growing Degree Days 4 (Base 50)    
Moisture  
Dew Point 46 °F    
Average Humidity 78    
Maximum Humidity 93    
Minimum Humidity 58    
Precipitation  
Precipitation 0.55 in - - ()
Sea Level Pressure  
Sea Level Pressure 29.78 in    
Wind  
Wind Speed 3 mph ()    
Max Wind Speed 7 mph    
Max Gust Speed -    
T = Trace of Precipitation, MM = Missing Value Source: Averaged Metar Reports

Daily Weather History Graph

Daily Weather History Graph

Search for Another Location

Airport:

Trip Planner

Search our weather history database for the weather conditions in past years. The results will help you decide how hot, cold, wet, or windy it might be!

Date:

Astronomy

Oct. 06, 2012 Rise Set
Actual Time 6:59 AM EDT 6:24 PM EDT
Civil Twilight 6:29 AM EDT 6:53 PM EDT
Nautical Twilight 5:55 AM EDT 7:28 PM EDT
Astronomical Twilight 5:20 AM EDT 8:02 PM EDT
Moon 10:24 PM EDT (10/6) 1:05 PM EDT (10/6)
Length of Visible Light 12h 23m
Length of Day
11h 24m
Waning Gibbous, 65% of the Moon is Illuminated
Oct 6
Waning Gibbous
Oct 8
Last Quarter
Oct 15
New
Oct 21
First Quarter
Oct 29
Full

Hourly Weather History & Observations

Time (EDT) Temp. Dew Point Humidity Pressure Visibility Wind Dir Wind Speed Gust Speed Precip Events Conditions
12:00 AM 62.8 °F 52.5 °F 69% 29.82 in - SSW 3.5 mph - N/A   Unknown
1:00 AM 62.2 °F 52.3 °F 70% 29.82 in - South 2.3 mph - N/A   Unknown
2:00 AM 62 °F 51 °F 58% 29.81 in - SSW 2.3 mph - -  
2:00 AM 61.5 °F 51.1 °F 69% 29.81 in - SSW 2.3 mph - N/A   Unknown
3:00 AM 59.4 °F 49.1 °F 69% 29.79 in - SSW 1.2 mph - N/A   Unknown
4:00 AM 58.1 °F 49.6 °F 73% 29.77 in - NW 1.2 mph - N/A   Unknown
5:00 AM 53.1 °F 47.1 °F 80% 29.76 in - North 6.9 mph - N/A   Unknown
6:00 AM 49.5 °F 47.1 °F 92% 29.76 in - North 5.8 mph - 0.11 in   Unknown
8:00 AM 48 °F 46 °F 90% 29.77 in - NNW 3.5 mph - -  
8:00 AM 47.8 °F 46.0 °F 93% 29.77 in - NNW 3.5 mph - 0.23 in   Unknown
9:00 AM 48.0 °F 46.2 °F 93% 29.77 in - NNW 1.2 mph - 0.23 in   Unknown
10:00 AM 48.2 °F 46.0 °F 92% 29.76 in - West 1.2 mph - N/A   Unknown
11:00 AM 48.9 °F 46.4 °F 91% 29.76 in - SSW 2.3 mph - N/A   Unknown
12:00 PM 49.3 °F 47.1 °F 92% 29.76 in - SSW 1.2 mph - N/A   Unknown
1:00 PM 50.7 °F 47.1 °F 87% 29.76 in - SW 3.5 mph - N/A   Unknown
2:00 PM 52 °F 47 °F 77% 29.75 in - WSW 3.5 mph - -  
2:00 PM 52.2 °F 46.9 °F 82% 29.75 in - WSW 3.5 mph - N/A   Unknown
3:00 PM 54.0 °F 47.1 °F 78% 29.75 in - SW 3.5 mph - N/A   Unknown
4:00 PM 55.9 °F 46.8 °F 71% 29.73 in - SSW 5.8 mph - N/A   Unknown
5:00 PM 56.5 °F 45.5 °F 67% 29.73 in - SSW 4.6 mph - 0.04 in   Unknown
6:00 PM 54.7 °F 44.6 °F 69% 29.72 in - NW 2.3 mph - N/A   Unknown
7:00 PM 49.8 °F 43.9 °F 80% 29.80 in - SSW 2.3 mph - N/A   Unknown
8:00 PM 49 °F 43 °F 72% 29.82 in - WSW 2.3 mph - -  
8:00 PM 49.3 °F 42.8 °F 78% 29.82 in - WSW 2.3 mph - N/A   Unknown
9:00 PM 49.6 °F 41.4 °F 73% 29.84 in - South 3.5 mph - N/A   Unknown
10:00 PM 49.5 °F 40.5 °F 71% 29.86 in - South 3.5 mph - N/A   Unknown
11:00 PM 48.4 °F 39.7 °F 72% 29.88 in - South 3.5 mph - N/A   Unknown